Starlink 30706

operational
NORAD ID: 57947 Int'l Des: 2023-148 Owner: SPXS Country: US Constellation: starlink
LEOCIRCULAR

Starlink 30706について

説明を読み込み中...

リアルタイム位置

3D地球を読み込み中...

次回通過

高度履歴

Altitude vs Time

uPlot chart will show altitude changes over time

軌道要素

1 57947U 23148N 25258.01597939 .00000168 00000-0 17802-4 0 9992
2 57947 53.1598 120.4208 0001382 93.5783 266.5376 15.30192493111523
Epoch: Sep 15, 2025 • Age: 20 hours

現在のステータス

高度 486.9 km
速度 7.62 km/s
衛星直下点 -34.79°S, 30.11°E
打ち上げ日 Sep 25, 2023
運用期間 1.9 years
タイプ internet

技術仕様

分類 Payload
質量 730.00 kg
乾燥質量 700.00 kg
総質量 730.00 kg
長さ 0.30 m
直径 4.10 m
スパン 29.00 m
形状 Box + pan
製造者 SPXS
バスタイプ Starlink V2M
フェーズステータス In Orbit
所有者/国 SPXS/US

大規模コンステレーション

Loading constellations...